Location: Béaulencourt
(50.0796°N, 2.8795°E)
Time: 22:49:35
(UTC+00:00)

Cosmos 2218 Rocket - Pass Details

Date: 20 January 2026
Orbit: 955 x 1005 km, 82.9° (Epoch: 9 February)

Event Time Altitude Azimuth Distance (km) Brightness Sun altitude
Rises 06:54:50 0° 208° (SSW) 3,682 7.0 -6.9°
Reaches altitude 10° 06:57:26 10° 214° (SW) 2,745 6.3 -6.5°
Maximum altitude 07:03:29 46° 287° (WNW) 1,310 4.3 -5.6°
Drops below altitude 10° 07:09:38 10° 1° (N) 2,787 6.2 -4.7°
Sets 07:12:19 0° 7° (N) 3,744 6.9 -4.3°
